Location: Dugenta
(41.1333°N, 14.4500°E)
Time: 14:35:25
(UTC+00:00)

Cosmos 2333 - Pass Details

Date: 03 March 2021
Orbit: 829 x 866 km, 70.9° (Epoch: 20 April)

Event Time Altitude Azimuth Distance (km) Brightness Sun altitude
Rises 18:28:40 0° 196° (SSW) 3,366 7.4 -18.3°
Reaches altitude 10° 18:31:06 10° 195° (SSW) 2,441 6.7 -18.8°
Maximum altitude 18:36:40 74° 111° (ESE) 879 4.1 -19.8°
Drops below altitude 10° 18:42:21 10° 27° (NNE) 2,481 6.5 -20.9°
Sets 18:44:49 0° 26° (NNE) 3,426 7.2 -21.3°
